HK4RAU-15 Weather Reports


time (UTC)temp
F
wind
direction
speed
knots
gust
knots
rain 1hr
in
rain 24hr
in
rain mn
in
humidity
%
barometer
mb
20260507160039 83 347 0.0 0.9 0.00 0.00 0.00 65 1013.0
20260507155733 84 347 0.0 0.9 0.00 0.00 0.00 65 1013.0
20260507155424 84 347 0.0 0.9 0.00 0.00 0.00 65 1013.0
20260507155117 85 347 0.0 0.9 0.00 0.00 0.00 65 1013.0
20260507154811 85 347 0.0 0.9 0.00 0.00 0.00 65 1013.0
20260507154501 85 347 0.0 0.9 0.00 0.00 0.00 65 1013.0
20260507154155 86 347 0.0 0.9 0.00 0.00 0.00 65 1013.0
20260507153848 81 347 0.0 0.9 0.00 0.00 0.00 69 1013.0
20260507153542 81 313 0.9 0.9 0.00 0.00 0.00 69 1014.0
20260507153235 81 347 0.0 0.9 0.00 0.00 0.00 69 1013.0
20260507152929 82 313 0.9 0.9 0.00 0.00 0.00 69 1014.0
20260507152627 81 313 0.9 0.9 0.00 0.00 0.00 69 1014.0
20260507152318 82 313 0.9 0.9 0.00 0.00 0.00 69 1014.0
20260507152017 83 313 0.9 0.9 0.00 0.00 0.00 69 1014.0
20260507151710 83 313 0.9 0.9 0.00 0.00 0.00 69 1014.0
20260507151403 83 313 0.9 0.9 0.00 0.00 0.00 69 1014.0
20260507151102 83 313 0.9 0.9 0.00 0.00 0.00 69 1014.0
20260507150756 83 313 0.9 0.9 0.00 0.00 0.00 69 1014.0
20260507150449 84 313 0.9 0.9 0.00 0.00 0.00 69 1014.0
20260507150148 85 313 0.9 0.9 0.00 0.00 0.00 69 1014.0
20260507145841 84 313 0.9 0.9 0.00 0.00 0.00 69 1014.0
20260507145535 84 313 0.9 0.9 0.00 0.00 0.00 69 1014.0
20260507145225 85 313 0.9 0.9 0.00 0.00 0.00 69 1014.0
20260507144919 86 313 0.9 0.9 0.00 0.00 0.00 69 1014.0
20260507144612 84 313 0.9 0.9 0.00 0.00 0.00 69 1014.0
20260507144305 85 313 0.9 0.9 0.00 0.00 0.00 69 1014.0
20260507143954 86 313 0.9 0.9 0.00 0.00 0.00 69 1014.0
20260507143649 79 313 0.9 0.9 0.00 0.00 0.00 79 1014.0
20260507143343 80 297 0.9 0.9 0.00 0.00 0.00 79 1014.0
20260507143041 79 313 0.9 0.9 0.00 0.00 0.00 79 1014.0
20260507142735 80 297 0.9 0.9 0.00 0.00 0.00 79 1014.0
20260507142428 80 297 0.9 0.9 0.00 0.00 0.00 79 1014.0
20260507142121 81 297 0.9 0.9 0.00 0.00 0.00 79 1014.0
20260507141815 80 297 0.9 0.9 0.00 0.00 0.00 79 1014.0
20260507141508 81 297 0.9 0.9 0.00 0.00 0.00 79 1014.0
20260507141202 81 297 0.9 0.9 0.00 0.00 0.00 79 1014.0
20260507140855 82 297 0.9 0.9 0.00 0.00 0.00 79 1014.0
20260507140549 82 297 0.9 0.9 0.00 0.00 0.00 79 1014.0
20260507140237 82 297 0.9 0.9 0.00 0.00 0.00 79 1014.0
20260507135924 77 297 0.9 0.9 0.00 0.00 0.00 80 1014.0
20260507135622 77 297 0.9 0.9 0.00 0.00 0.00 80 1014.0
20260507135316 78 297 0.9 0.9 0.00 0.00 0.00 80 1014.0
20260507135003 78 297 0.9 0.9 0.00 0.00 0.00 80 1014.0
20260507134652 79 297 0.9 0.9 0.00 0.00 0.00 80 1014.0
20260507134345 80 297 0.9 0.9 0.00 0.00 0.00 80 1014.0
20260507134042 80 297 0.9 0.9 0.00 0.00 0.00 80 1014.0
20260507133735 80 297 0.9 0.9 0.00 0.00 0.00 80 1014.0
20260507133434 81 297 0.9 0.9 0.00 0.00 0.00 80 1014.0
20260507133133 74 266 0.0 0.9 0.00 0.00 0.00 92 1014.0
20260507132821 74 266 0.0 0.9 0.00 0.00 0.00 92 1014.0
20260507132520 74 266 0.0 0.9 0.00 0.00 0.00 92 1014.0
20260507132208 75 266 0.0 0.9 0.00 0.00 0.00 92 1014.0
20260507131902 76 266 0.0 0.9 0.00 0.00 0.00 92 1014.0
20260507131545 75 266 0.0 0.9 0.00 0.00 0.00 92 1014.0
20260507131238 75 266 0.0 0.9 0.00 0.00 0.00 92 1014.0
20260507130937 76 266 0.0 0.9 0.00 0.00 0.00 92 1014.0
20260507130625 72 266 0.0 0.9 0.00 0.00 0.00 93 1014.0
20260507130319 72 266 0.0 0.9 0.00 0.00 0.00 93 1014.0
20260507130013 73 266 0.0 0.9 0.00 0.00 0.00 93 1014.0
20260507125711 74 266 0.0 0.9 0.00 0.00 0.00 93 1014.0
20260507125400 75 266 0.0 0.9 0.00 0.00 0.00 93 1014.0
20260507125053 74 266 0.0 0.9 0.00 0.00 0.00 93 1014.0
20260507124747 75 266 0.0 0.9 0.00 0.00 0.00 93 1014.0
20260507124440 75 266 0.0 0.9 0.00 0.00 0.00 93 1014.0
20260507124139 75 266 0.0 0.9 0.00 0.00 0.00 93 1014.0
20260507123832 76 266 0.0 0.9 0.00 0.00 0.00 93 1014.0
20260507123026 69 230 0.0 0.9 0.00 0.00 0.00 99 1013.0
20260507122720 68 230 0.0 0.9 0.00 0.00 0.00 99 1013.0
20260507122411 68 230 0.0 0.9 0.00 0.00 0.00 99 1013.0
20260507122109 69 230 0.0 0.9 0.00 0.00 0.00 99 1013.0
20260507121151 70 230 0.0 0.9 0.00 0.00 0.00 99 1013.0
20260507120828 71 230 0.0 0.9 0.00 0.00 0.00 99 1013.0
20260507120513 72 267 0.9 0.9 0.00 0.00 0.00 99 1013.0
20260507120207 72 267 0.9 0.9 0.00 0.00 0.00 99 1013.0
20260507115900 72 267 0.9 0.9 0.00 0.00 0.00 99 1013.0
20260507115252 67 267 0.9 0.9 0.00 0.00 0.00 99 1013.0
20260507114644 67 267 0.9 0.9 0.00 0.00 0.00 99 1013.0
20260507114335 68 267 0.9 0.9 0.00 0.00 0.00 99 1013.0
20260507114028 69 267 0.9 0.9 0.00 0.00 0.00 99 1013.0
20260507113717 68 267 0.9 0.9 0.00 0.00 0.00 99 1013.0
20260507113411 68 267 0.9 0.9 0.00 0.00 0.00 99 1013.0
20260507113104 69 267 0.9 0.9 0.00 0.00 0.00 99 1013.0
20260507112753 70 278 0.0 0.0 0.00 0.00 0.00 99 1012.0
20260507112446 70 278 0.0 0.0 0.00 0.00 0.00 99 1012.0
20260507112140 70 278 0.0 0.0 0.00 0.00 0.00 99 1012.0
20260507111835 71 278 0.0 0.0 0.00 0.00 0.00 99 1012.0
20260507111516 71 278 0.0 0.0 0.00 0.00 0.00 99 1012.0
20260507111210 71 278 0.0 0.0 0.00 0.00 0.00 99 1012.0
20260507110903 71 278 0.0 0.0 0.00 0.00 0.00 99 1012.0
20260507110542 66 278 0.0 0.0 0.00 0.00 0.00 99 1012.0
20260507110241 67 278 0.0 0.0 0.00 0.00 0.00 99 1012.0
20260507105940 68 278 0.0 0.0 0.00 0.00 0.00 99 1012.0
20260507105633 66 278 0.0 0.0 0.00 0.00 0.00 99 1012.0
20260507105332 67 278 0.0 0.0 0.00 0.00 0.00 99 1012.0
20260507105030 68 278 0.0 0.0 0.00 0.00 0.00 99 1012.0
20260507104724 69 278 0.0 0.0 0.00 0.00 0.00 99 1012.0
20260507104411 70 278 0.0 0.0 0.00 0.00 0.00 99 1012.0
20260507104105 69 278 0.0 0.0 0.00 0.00 0.00 99 1012.0
20260507103753 70 278 0.0 0.0 0.00 0.00 0.00 99 1012.0
20260507103452 70 278 0.0 0.0 0.00 0.00 0.00 99 1012.0
20260507103145 71 306 0.0 0.9 0.00 0.00 0.00 99 1012.0
20260507102839 71 306 0.0 0.9 0.00 0.00 0.00 99 1012.0
20260507102537 66 306 0.0 0.9 0.00 0.00 0.00 99 1012.0
20260507102233 66 306 0.0 0.9 0.00 0.00 0.00 99 1012.0
20260507101927 66 306 0.0 0.9 0.00 0.00 0.00 99 1012.0
20260507101620 67 306 0.0 0.9 0.00 0.00 0.00 99 1012.0
20260507101309 68 306 0.0 0.9 0.00 0.00 0.00 99 1012.0
20260507101006 69 306 0.0 0.9 0.00 0.00 0.00 99 1012.0
20260507100659 68 306 0.0 0.9 0.00 0.00 0.00 99 1012.0
20260507100358 69 306 0.0 0.9 0.00 0.00 0.00 99 1012.0
20260507100056 70 306 0.0 0.9 0.00 0.00 0.00 99 1012.0
20260507095754 70 306 0.0 0.9 0.00 0.00 0.00 99 1012.0
20260507095450 69 306 0.0 0.9 0.00 0.00 0.00 99 1012.0
20260507095149 70 306 0.0 0.9 0.00 0.00 0.00 99 1012.0
20260507094843 66 306 0.0 0.9 0.00 0.00 0.00 99 1012.0
20260507094542 66 306 0.0 0.9 0.00 0.00 0.00 99 1012.0
20260507094235 66 306 0.0 0.9 0.00 0.00 0.00 99 1012.0
20260507093928 66 306 0.0 0.9 0.00 0.00 0.00 99 1012.0
20260507093620 67 306 0.0 0.9 0.00 0.00 0.00 99 1012.0
20260507093313 67 306 0.0 0.9 0.00 0.00 0.00 99 1012.0
20260507093007 67 306 0.0 0.9 0.00 0.00 0.00 99 1012.0
20260507092700 68 329 0.0 0.0 0.00 0.00 0.00 99 1012.0
20260507092349 69 329 0.0 0.0 0.00 0.00 0.00 99 1012.0
20260507092048 69 329 0.0 0.0 0.00 0.00 0.00 99 1012.0
20260507091736 69 329 0.0 0.0 0.00 0.00 0.00 99 1012.0
20260507091430 70 329 0.0 0.0 0.00 0.00 0.00 99 1012.0
20260507091123 71 329 0.0 0.0 0.00 0.00 0.00 99 1012.0
20260507090822 66 329 0.0 0.0 0.00 0.00 0.00 99 1012.0
20260507090520 71 329 0.0 0.0 0.00 0.00 0.00 99 1012.0
20260507090208 66 329 0.0 0.0 0.00 0.00 0.00 99 1012.0
20260507085901 67 329 0.0 0.0 0.00 0.00 0.00 99 1012.0
20260507085248 68 329 0.0 0.0 0.00 0.00 0.00 99 1012.0
20260507084936 67 329 0.0 0.0 0.00 0.00 0.00 99 1012.0
20260507084635 68 329 0.0 0.0 0.00 0.00 0.00 99 1012.0
20260507084330 68 329 0.0 0.0 0.00 0.00 0.00 99 1012.0
20260507084024 69 329 0.0 0.0 0.00 0.00 0.00 99 1012.0
20260507083716 69 329 0.0 0.0 0.00 0.00 0.00 99 1012.0
20260507083414 70 329 0.0 0.0 0.00 0.00 0.00 99 1012.0
20260507082750 71 272 0.0 0.0 0.00 0.00 0.00 99 1012.0
20260507082444 67 272 0.0 0.0 0.00 0.00 0.00 99 1012.0
20260507082143 71 272 0.0 0.0 0.00 0.00 0.00 99 1012.0
20260507081831 66 272 0.0 0.0 0.00 0.00 0.00 99 1012.0
20260507081530 67 272 0.0 0.0 0.00 0.00 0.00 99 1012.0
20260507081223 68 272 0.0 0.0 0.00 0.00 0.00 99 1012.0
20260507080611 69 272 0.0 0.0 0.00 0.00 0.00 99 1012.0
20260507080309 68 272 0.0 0.0 0.00 0.00 0.00 99 1012.0
20260507080003 69 272 0.0 0.0 0.00 0.00 0.00 99 1012.0
20260507075656 70 272 0.0 0.0 0.00 0.00 0.00 99 1012.0
20260507075350 71 272 0.0 0.0 0.00 0.00 0.00 99 1012.0
20260507075044 70 272 0.0 0.0 0.00 0.00 0.00 99 1012.0
20260507074737 71 272 0.0 0.0 0.00 0.00 0.00 99 1012.0
20260507074431 66 272 0.0 0.0 0.00 0.00 0.00 99 1012.0
20260507074124 67 272 0.0 0.0 0.00 0.00 0.00 99 1012.0
20260507073818 71 272 0.0 0.0 0.00 0.00 0.00 99 1012.0
20260507073512 66 272 0.0 0.0 0.00 0.00 0.00 99 1012.0
20260507073205 67 272 0.0 0.0 0.00 0.00 0.00 99 1012.0
20260507072859 68 229 0.9 0.9 0.00 0.00 0.00 99 1013.0
20260507072552 69 229 0.9 0.9 0.00 0.00 0.00 99 1013.0
20260507072246 68 229 0.9 0.9 0.00 0.00 0.00 99 1013.0
20260507071944 69 229 0.9 0.9 0.00 0.00 0.00 99 1013.0
20260507071638 69 229 0.9 0.9 0.00 0.00 0.00 99 1013.0
20260507071331 70 229 0.9 0.9 0.00 0.00 0.00 99 1013.0
20260507071025 71 229 0.9 0.9 0.00 0.00 0.00 99 1013.0
20260507070718 71 229 0.9 0.9 0.00 0.00 0.00 99 1013.0
20260507070411 71 229 0.9 0.9 0.00 0.00 0.00 99 1013.0
20260507070105 66 229 0.9 0.9 0.00 0.00 0.00 99 1013.0
20260507065758 67 229 0.9 0.9 0.00 0.00 0.00 99 1013.0
20260507065457 67 229 0.9 0.9 0.00 0.00 0.00 99 1013.0
20260507065151 68 229 0.9 0.9 0.00 0.00 0.00 99 1013.0
20260507064844 68 229 0.9 0.9 0.00 0.00 0.00 99 1013.0
20260507064543 69 229 0.9 0.9 0.00 0.00 0.00 99 1013.0
20260507064236 69 229 0.9 0.9 0.00 0.00 0.00 99 1013.0
20260507063935 70 229 0.9 0.9 0.00 0.00 0.00 99 1013.0
20260507063633 69 229 0.9 0.9 0.00 0.00 0.00 99 1013.0
20260507063322 70 229 0.9 0.9 0.00 0.00 0.00 99 1013.0
20260507063020 71 206 0.0 0.0 0.00 0.00 0.00 99 1013.0
20260507062714 71 206 0.0 0.0 0.00 0.00 0.00 99 1013.0
20260507062412 67 206 0.0 0.0 0.00 0.00 0.00 99 1013.0
20260507062111 68 206 0.0 0.0 0.00 0.00 0.00 99 1013.0
20260507061810 69 206 0.0 0.0 0.00 0.00 0.00 99 1013.0
20260507061502 70 206 0.0 0.0 0.00 0.00 0.00 99 1013.0
20260507061156 71 206 0.0 0.0 0.00 0.00 0.00 99 1013.0
20260507060849 70 206 0.0 0.0 0.00 0.00 0.00 99 1013.0
20260507060236 71 206 0.0 0.0 0.00 0.00 0.00 99 1013.0
20260507055929 67 206 0.0 0.0 0.00 0.00 0.00 99 1013.0
20260507055623 67 206 0.0 0.0 0.00 0.00 0.00 99 1013.0
20260507055316 67 206 0.0 0.0 0.00 0.00 0.00 99 1013.0
20260507055004 68 170 0.9 0.9 0.00 0.00 0.00 99 1013.0
20260507054648 67 170 0.9 0.9 0.00 0.00 0.00 99 1013.0
20260507054024 68 170 0.9 0.9 0.00 0.00 0.00 99 1013.0
20260507053718 69 170 0.9 0.9 0.00 0.00 0.00 99 1013.0
20260507053056 70 145 0.9 0.9 0.00 0.00 0.00 99 1014.0
20260507052412 69 145 0.9 0.9 0.00 0.00 0.00 99 1014.0
20260507052110 70 145 0.9 0.9 0.00 0.00 0.00 99 1014.0
20260507051807 71 145 0.9 0.9 0.00 0.00 0.00 99 1014.0
20260507051500 71 145 0.9 0.9 0.00 0.00 0.00 99 1014.0
20260507050508 67 145 0.9 0.9 0.00 0.00 0.00 99 1014.0
20260507045825 68 145 0.9 0.9 0.00 0.00 0.00 99 1014.0
20260507044843 68 145 0.9 0.9 0.00 0.00 0.00 99 1014.0
20260507044534 69 145 0.9 0.9 0.00 0.00 0.00 99 1014.0
20260507044227 70 145 0.9 0.9 0.00 0.00 0.00 99 1014.0
20260507043921 71 145 0.9 0.9 0.00 0.00 0.00 99 1014.0
20260507043619 71 145 0.9 0.9 0.00 0.00 0.00 99 1014.0
20260507043312 71 145 0.9 0.9 0.00 0.00 0.00 99 1014.0
20260507043006 71 145 0.9 0.9 0.00 0.00 0.00 99 1014.0
20260507042704 67 164 0.0 0.0 0.00 0.00 0.00 99 1015.0
20260507042403 67 164 0.0 0.0 0.00 0.00 0.00 99 1015.0
20260507042102 68 164 0.0 0.0 0.00 0.00 0.00 99 1015.0
20260507041755 68 164 0.0 0.0 0.00 0.00 0.00 99 1015.0
20260507041454 68 164 0.0 0.0 0.00 0.00 0.00 99 1015.0
20260507041147 69 164 0.0 0.0 0.00 0.00 0.00 99 1015.0
20260507040840 69 164 0.0 0.0 0.00 0.00 0.00 99 1015.0
20260507040533 70 164 0.0 0.0 0.00 0.00 0.00 99 1015.0
20260507040232 70 164 0.0 0.0 0.00 0.00 0.00 99 1015.0
20260507035925 71 164 0.0 0.0 0.00 0.00 0.00 99 1015.0
20260507035619 72 164 0.0 0.0 0.00 0.00 0.00 99 1015.0
20260507035313 72 164 0.0 0.0 0.00 0.00 0.00 99 1015.0
20260507035006 72 164 0.0 0.0 0.00 0.00 0.00 99 1015.0
20260507034704 67 164 0.0 0.0 0.00 0.00 0.00 99 1015.0
20260507034358 67 164 0.0 0.0 0.00 0.00 0.00 99 1015.0
20260507034041 68 164 0.0 0.0 0.00 0.00 0.00 99 1015.0
20260507033740 68 164 0.0 0.0 0.00 0.00 0.00 99 1015.0
20260507033439 69 164 0.0 0.0 0.00 0.00 0.00 99 1015.0
20260507033137 70 132 0.9 0.9 0.00 0.00 0.00 99 1015.0
20260507032830 70 132 0.9 0.9 0.00 0.00 0.00 99 1015.0
20260507032529 71 132 0.9 0.9 0.00 0.00 0.00 99 1015.0
20260507032222 71 132 0.9 0.9 0.00 0.00 0.00 99 1015.0
20260507031921 72 132 0.9 0.9 0.00 0.00 0.00 99 1015.0
20260507031614 72 132 0.9 0.9 0.00 0.00 0.00 99 1015.0
20260507031307 72 132 0.9 0.9 0.00 0.00 0.00 99 1015.0
20260507031004 72 132 0.9 0.9 0.00 0.00 0.00 99 1015.0
20260507030702 72 132 0.9 0.9 0.00 0.00 0.00 99 1015.0
20260507030356 67 132 0.9 0.9 0.00 0.00 0.00 99 1015.0
20260507030049 72 132 0.9 0.9 0.00 0.00 0.00 99 1015.0
20260507025748 67 132 0.9 0.9 0.00 0.00 0.00 99 1015.0
20260507025441 68 132 0.9 0.9 0.00 0.00 0.00 99 1015.0
20260507025135 68 132 0.9 0.9 0.00 0.00 0.00 99 1015.0
20260507024834 69 132 0.9 0.9 0.00 0.00 0.00 99 1015.0
20260507024532 69 132 0.9 0.9 0.00 0.00 0.00 99 1015.0
20260507024231 70 132 0.9 0.9 0.00 0.00 0.00 99 1015.0
20260507023929 70 132 0.9 0.9 0.00 0.00 0.00 99 1015.0
20260507023627 71 132 0.9 0.9 0.00 0.00 0.00 99 1015.0
20260507023325 71 132 0.9 0.9 0.00 0.00 0.00 99 1015.0
20260507023012 72 132 0.9 0.9 0.00 0.00 0.00 99 1015.0